Simultaneous Nadir Overpasses (SNOs) Predictions

Prediction of SNOs between AQUA and NPP Satellite Orbit:

Table of predicted SNOs for the next 14.0 days since TLE Epoch: 4/16/2014
Index Date (AQUA) Time (AQUA) Lat,Lon (AQUA) SZA (AQUA ) Date (NPP) Time (NPP) Lat,Lon (NPP) SZA (NPP ) Distance(km) Time Diff (sec)
1 04/17/2014 03:07:41 -66.32, 176.18 82.87 04/17/2014 03:06:52 -66.32, 176.22 82.84 1.91 49
2 04/17/2014 03:56:16 69.12, -12.97 94.30 04/17/2014 03:56:44 69.11, -13.02 94.29 2.16 28
3 04/19/2014 19:23:46 -67.55, -66.62 85.04 04/19/2014 19:23:30 -67.55, -66.60 85.04 0.94 16
4 04/19/2014 20:12:24 70.16, 104.33 92.30 04/19/2014 20:13:25 70.15, 104.28 92.25 2.12 61
5 04/22/2014 10:51:34 64.72,-121.20 96.88 04/22/2014 10:50:36 64.72,-121.21 96.95 0.39 58
6 04/22/2014 11:39:58 -68.35, 50.19 86.76 04/22/2014 11:40:16 -68.34, 50.15 86.76 1.73 18
7 04/25/2014 03:07:32 66.28, -3.82 94.45 04/25/2014 03:07:08 66.28, -3.84 94.48 0.70 24
8 04/25/2014 03:56:00 -69.64, 167.74 88.96 04/25/2014 03:56:52 -69.64, 167.72 89.01 0.94 52
9 04/27/2014 18:35:27 -63.10, -58.44 83.25 04/27/2014 18:34:22 -63.09, -58.48 83.16 2.26 65
10 04/27/2014 19:23:19 68.35, 114.34 91.52 04/27/2014 19:23:29 68.36, 114.40 91.48 2.53 10




NCC Satellite Simultaneous Nadir Overpasses (SNOs) Prediction Service
